| time (UTC) | temp F | wind direction | speed knots | gust knots | rain 1hr in | rain 24hr in | rain mn in | humidity % | barometer mb |
| 20260504120105 | 50 | 205 | 5.2 | 0.0 | 0.00 | 0.00 | 0.00 | 65 | 1008.0 |
| 20260504081513 | 48 | 197 | 2.6 | 0.0 | 0.00 | 0.00 | 0.00 | 67 | 1008.4 |
| 20260504044557 | 48 | 281 | 0.0 | 0.0 | 0.00 | 0.00 | 0.00 | 66 | 1009.3 |
| 20260504043054 | 49 | 285 | 0.0 | 0.0 | 0.00 | 0.00 | 0.00 | 66 | 1009.5 |
| 20260504041553 | 49 | 288 | 0.0 | 0.0 | 0.00 | 0.00 | 0.00 | 66 | 1009.6 |
| 20260504040051 | 49 | 288 | 0.9 | 0.0 | 0.00 | 0.00 | 0.00 | 66 | 1009.6 |
| 20260504034551 | 48 | 306 | 2.6 | 0.0 | 0.00 | 0.00 | 0.00 | 66 | 1009.4 |
| 20260504033054 | 47 | 303 | 1.7 | 0.0 | 0.00 | 0.00 | 0.00 | 65 | 1009.5 |
| 20260504031559 | 45 | 250 | 0.9 | 0.0 | 0.00 | 0.00 | 0.00 | 62 | 1009.2 |
| 20260504030050 | 44 | 261 | 0.0 | 0.0 | 0.00 | 0.00 | 0.00 | 61 | 1009.3 |
| 20260504024557 | 44 | 261 | 0.0 | 0.0 | 0.00 | 0.00 | 0.00 | 62 | 1009.2 |
| 20260504023048 | 44 | 261 | 0.0 | 0.0 | 0.00 | 0.00 | 0.00 | 62 | 1009.3 |
| 20260504021552 | 45 | 261 | 0.0 | 0.0 | 0.00 | 0.00 | 0.00 | 61 | 1009.2 |
| 20260504020050 | 45 | 261 | 0.0 | 0.0 | 0.00 | 0.00 | 0.00 | 56 | 1009.3 |
| 20260504014546 | 46 | 261 | 0.0 | 0.0 | 0.00 | 0.00 | 0.00 | 53 | 1009.3 |
| 20260504013054 | 47 | 261 | 0.0 | 0.0 | 0.00 | 0.00 | 0.00 | 50 | 1009.3 |
| 20260504011546 | 48 | 275 | 0.0 | 0.0 | 0.00 | 0.00 | 0.00 | 49 | 1009.0 |
| 20260504010045 | 49 | 289 | 0.0 | 0.0 | 0.00 | 0.00 | 0.00 | 46 | 1008.8 |
| 20260504004559 | 50 | 289 | 0.0 | 0.0 | 0.00 | 0.00 | 0.00 | 41 | 1008.6 |
| 20260504003044 | 51 | 289 | 0.9 | 0.0 | 0.00 | 0.00 | 0.00 | 39 | 1008.4 |
| 20260504001546 | 52 | 284 | 0.9 | 0.0 | 0.00 | 0.00 | 0.00 | 38 | 1008.2 |
| 20260504000044 | 53 | 295 | 3.5 | 0.0 | 0.00 | 0.00 | 0.00 | 36 | 1007.9 |
| 20260503234543 | 54 | 281 | 3.5 | 0.0 | 0.00 | 0.00 | 0.00 | 34 | 1007.6 |
| 20260503233042 | 55 | 271 | 2.6 | 0.0 | 0.00 | 0.00 | 0.00 | 31 | 1007.4 |
| 20260503231549 | 56 | 288 | 1.7 | 0.0 | 0.00 | 0.00 | 0.00 | 38 | 1007.1 |
| 20260503230041 | 57 | 53 | 0.9 | 0.0 | 0.00 | 0.00 | 0.00 | 33 | 1007.0 |
| 20260503224541 | 56 | 355 | 0.0 | 0.0 | 0.00 | 0.00 | 0.00 | 34 | 1006.8 |
| 20260503223040 | 57 | 313 | 0.0 | 0.0 | 0.00 | 0.00 | 0.00 | 36 | 1006.8 |
| 20260503221539 | 57 | 291 | 1.7 | 0.0 | 0.00 | 0.00 | 0.00 | 38 | 1006.9 |
| 20260503220039 | 56 | 259 | 2.6 | 0.0 | 0.00 | 0.00 | 0.00 | 35 | 1006.8 |
| 20260503214535 | 56 | 344 | 0.9 | 0.0 | 0.00 | 0.00 | 0.00 | 37 | 1006.9 |
| 20260503213035 | 56 | 310 | 1.7 | 0.0 | 0.00 | 0.00 | 0.00 | 36 | 1007.0 |
| 20260503211538 | 56 | 262 | 3.5 | 0.0 | 0.00 | 0.00 | 0.00 | 37 | 1007.1 |
| 20260503210033 | 56 | 242 | 4.3 | 0.0 | 0.00 | 0.00 | 0.00 | 39 | 1007.1 |
| 20260503204531 | 55 | 32 | 3.5 | 0.0 | 0.00 | 0.00 | 0.00 | 39 | 1007.3 |
| 20260503203025 | 54 | 306 | 5.2 | 0.0 | 0.00 | 0.00 | 0.00 | 42 | 1007.5 |
| 20260503201521 | 53 | 295 | 4.3 | 0.0 | 0.00 | 0.00 | 0.00 | 42 | 1007.6 |
| 20260503200020 | 53 | 279 | 4.3 | 0.0 | 0.00 | 0.00 | 0.00 | 41 | 1007.7 |
| 20260503194517 | 52 | 314 | 4.3 | 0.0 | 0.00 | 0.00 | 0.00 | 44 | 1007.9 |
| 20260503193031 | 52 | 314 | 3.5 | 0.0 | 0.00 | 0.00 | 0.00 | 44 | 1008.1 |
| 20260503191515 | 52 | 246 | 1.7 | 0.0 | 0.00 | 0.00 | 0.00 | 44 | 1008.2 |
| 20260503190023 | 52 | 329 | 1.7 | 0.0 | 0.00 | 0.00 | 0.00 | 46 | 1008.3 |
| 20260503184511 | 52 | 254 | 3.5 | 0.0 | 0.00 | 0.00 | 0.00 | 45 | 1008.4 |
| 20260503183007 | 51 | 317 | 0.9 | 0.0 | 0.00 | 0.00 | 0.00 | 47 | 1008.6 |
| 20260503181506 | 51 | 285 | 2.6 | 0.0 | 0.00 | 0.00 | 0.00 | 43 | 1008.7 |
| 20260503180005 | 51 | 293 | 1.7 | 0.0 | 0.00 | 0.00 | 0.00 | 45 | 1008.8 |
| 20260503174506 | 50 | 229 | 1.7 | 0.0 | 0.00 | 0.00 | 0.00 | 46 | 1008.9 |
| 20260503173014 | 50 | 302 | 2.6 | 0.0 | 0.00 | 0.00 | 0.00 | 47 | 1008.9 |
| 20260503171503 | 50 | 313 | 3.5 | 0.0 | 0.00 | 0.00 | 0.00 | 45 | 1008.9 |